Home   Weather   Saanich   Past weeks

Flag for Canada Past Weather in Saanich, British Columbia, Canada — Yesterday and Last 2 Weeks

Now
41 °F

Passing clouds.


Feels Like: 35 °F
Forecast: 40 / 45 °F
Wind: 9 mph from West

Location: Victoria Int. Airportb. C.

Current Time: Dec 4, 2016 at 4:18:44 am

Latest Report: Dec 4, 2016 at 3:00 am


Visibility: 30 mi

Pressure: 29.98 "Hg

Humidity: 81%

Dew Point: 36 °F

Location of SaanichLocation

Past Weather in Saanich — Graph

°F

Saanich Temperature Yesterday

Maximum temperature yesterday: 48 °F (at 12:00 pm)
Minimum temperature yesterday: 37 °F (at 5:00 am)
Average temperature yesterday: 44 °F

High & Low Weather Summary for the Past Weeks

 TemperatureHumidityPressure
High54 °F (Nov 21, 12:00 pm)100% (Nov 22, 6:00 pm)30.31 "Hg (Nov 22, 6:00 pm)
Low34 °F (Nov 28, 3:00 am)51% (Nov 21, 2:00 pm)29.41 "Hg (Nov 27, 7:00 pm)
Average44 °F89%29.87 "Hg
* Reported Nov 19 3:00 am — Dec 4 3:00 am, Saanich, Weather by CustomWeather, © 2016

Note: Actual official high and low records may vary slightly from our data, if they occured in-between our weather recording intervals... More about our weather records

Advertising

Saanich Weather History for the Previous 24 Hours

Scroll right to see more
 ConditionsComfort  
Time TempWeatherWind HumidityBarometerVisibility
3:00 am
Sun, Dec 4
41 °FPassing clouds.9 mph81%29.98 "Hg30 mi
2:00 am41 °FPassing clouds.9 mph87%29.99 "Hg30 mi
1:00 am43 °FMostly cloudy.12 mph76%30.00 "Hg30 mi
12:00 am41 °FMostly cloudy.5 mph87%30.01 "Hg30 mi
11:00 pm
Sat, Dec 3
41 °FMostly cloudy.6 mph93%30.03 "Hg15 mi
10:00 pm41 °FMostly cloudy.3 mph93%30.04 "Hg15 mi
9:46 pm41 °FMostly cloudy.6 mph100%30.05 "Hg15 mi
9:00 pm43 °FLight rain. Mostly cloudy.7 mph93%30.06 "Hg8 mi
8:00 pm43 °FLight rain. Mostly cloudy.3 mph93%30.07 "Hg12 mi
7:00 pm45 °FLight rain. Mostly cloudy.6 mph81%30.08 "Hg15 mi
6:00 pm43 °FLight rain. Overcast.8 mph93%30.10 "Hg20 mi
5:00 pm45 °FLight rain. Mostly cloudy.8 mph87%30.13 "Hg20 mi
4:00 pm45 °FLight rain. Cloudy.7 mph87%30.14 "Hg20 mi
3:00 pm46 °FCloudy.9 mph82%30.16 "Hg30 mi
2:00 pm48 °FCloudy.5 mph76%30.20 "Hg30 mi
1:00 pm48 °FBroken clouds.8 mph76%30.20 "Hg30 mi
12:00 pm48 °FBroken clouds.14 mph71%30.22 "Hg30 mi
11:00 am46 °FMore clouds than sun.12 mph76%30.22 "Hg30 mi
10:00 am46 °FBroken clouds.9 mph82%30.23 "Hg30 mi
9:00 am46 °FBroken clouds.7 mph71%30.22 "Hg30 mi
8:00 am45 °FPartly sunny.7 mph81%30.20 "Hg30 mi
7:00 am43 °FPassing clouds.5 mph76%30.22 "Hg30 mi
6:00 am39 °FPassing clouds.No wind87%30.20 "Hg30 mi
5:00 am37 °FPassing clouds.No wind87%30.20 "Hg30 mi
4:00 am41 °FPassing clouds.5 mph81%30.20 "Hg30 mi
Weather by CustomWeather, © 2016

See weather overviewHow to use our weather pages